Wind_Speed
49 51 48 45 46 49 52 52 51 46 48 53 47 50 48 42 37 33 31 35 37 39 38 36 37 37 36 36 36 31 28 29 30 35 38 39 38 37 38 37 39 40 38 38
48 52 48 48 48 50 53 56 56 56 52 52 55 54 49 50 41 39 37 36 37 36 32 35 36 33 35 40 42 41 38 34 32 34 36 36 37 38 41 40 40 40 41 41
48 52 50 52 53 51 52 55 56 58 54 53 53 55 58 52 44 43 40 38 38 38 40 37 38 40 38 37 35 39 37 31 32 33 35 39 40 41 42 44 45 46 46 46
47 41 45 48 48 48 52 49 54 56 57 58 53 58 58 56 54 54 50 44 44 43 38 39 40 43 43 39 39 37 38 41 42 39 39 39 41 41 44 45 46 46 49 50
47 49 52 54 54 54 57 56 56 58 60 63 62 61 62 63 61 54 53 47 51 48 46 44 42 44 46 45 46 46 47 46 46 45 43 44 47 47 47 47 49 49 50 52
46 49 52 53 53 52 55 56 58 60 61 63 63 64 65 61 60 52 55 38 36 31 34 52 53 50 51 52 55 53 53 52 51 50 49 47 48 51 51 52 51 52 54 56
52 50 52 53 55 55 53 54 58 61 60 60 65 64 66 64 55 56 46 38 45 57 62 55 51 52 58 61 58 57 57 57 57 55 54 54 55 54 55 57 58 58 59 59
58 57 55 55 54 56 58 59 61 62 62 63 60 66 65 64 66 68 67 67 66 67 70 64 61 62 61 61 64 65 63 61 59 59 60 61 60 61 60 57 56 59 63 66
59 64 59 59 59 58 61 63 62 64 65 68 66 65 64 65 66 67 67 70 69 68 69 71 73 69 67 65 63 63 64 64 61 59 60 61 61 66 68 65 63 65 68 71
56 61 60 61 58 57 58 56 59 61 64 71 73 70 67 66 67 70 67 64 64 65 67 69 70 68 66 64 64 64 65 62 61 61 59 66 64 60 64 69 70 71 72 71
57 57 59 59 61 60 60 58 57 62 66 68 69 69 68 67 66 68 65 63 63 63 64 65 69 71 69 69 70 67 68 67 65 62 64 60 61 61 63 68 71 71 73 79
58 63 64 61 59 62 61 58 58 62 65 66 67 66 61 61 64 62 64 70 72 71 72 72 74 76 79 78 73 73 70 70 71 65 65 69 63 68 69 70 74 76 78 79
60 58 60 62 60 60 57 55 55 59 63 68 68 65 58 46 54 56 61 67 74 75 76 79 78 76 75 73 73 72 73 74 77 78 75 72 73 74 75 77 77 78 78 78
59 61 63 66 64 63 63 62 62 66 70 71 65 65 64 66 67 72 74 74 74 78 80 83 84 84 84 83 81 79 79 80 82 85 87 85 77 74 78 80 85 83 84 84
58 61 61 62 65 67 70 71 70 72 69 71 72 72 69 74 78 81 84 84 86 86 84 86 87 87 87 87 87 89 89 86 83 83 81 79 76 76 76 85 90 93 91 93
60 64 65 69 68 72 76 75 75 76 76 81 80 82 81 82 82 84 83 82 80 80 81 82 83 84 85 86 87 88 90 91 90 90 89 90 88 84 81 83 85 96 96 93
69 72 74 80 75 77 84 79 80 82 81 81 83 81 81 83 81 81 82 80 80 82 82 83 84 85 86 87 89 92 94 96 97 95 96 95 94 92 89 88 90 88 95 100
77 79 79 84 79 86 88 81 82 83 83 83 82 82 82 82 82 81 81 82 82 84 85 86 88 89 91 93 95 97 98 99 101 101 101 102 103 103 102 98 94 98 97 95
78 78 78 78 79 82 81 73 72 72 74 73 75 77 78 79 80 78 77 80 81 82 84 86 88 90 91 92 94 96 96 98 99 101 102 101 101 103 104 107 107 103 103 105
79 72 67 68 67 70 66 61 61 61 64 65 67 68 69 71 73 72 70 72 73 74 76 77 79 81 81 81 83 85 86 87 88 91 93 95 96 98 99 100 104 107 108 105
63 60 61 58 61 63 59 57 55 56 57 57 60 61 64 66 67 66 65 67 67 69 71 73 74 75 77 80 83 83 84 85 88 87 88 88 88 88 90 91 94 98 102 105
54 55 54 54 56 56 52 53 51 50 51 54 57 58 60 62 63 64 65 66 68 71 72 74 76 77 77 81 84 85 86 88 89 90 90 91 91 92 93 93 92 94 96 96
51 50 54 53 50 47 48 49 49 50 54 53 56 57 61 62 64 66 67 68 68 71 73 75 78 79 79 81 84 86 85 87 87 88 88 90 90 90 90 92 92 94 96 98
44 47 52 53 42 45 46 49 51 52 55 56 57 58 59 62 63 64 66 67 68 69 70 73 75 76 77 78 80 82 83 85 85 85 84 83 84 84 84 85 87 90 91 93
41 48 46 50 43 48 47 50 52 54 55 55 56 58 59 61 63 63 64 64 65 66 68 71 73 73 74 74 74 75 75 77 77 76 75 75 76 76 77 78 78 81 84 87
39 44 49 49 45 51 50 50 52 54 54 55 56 56 57 57 57 59 59 60 62 64 65 66 67 68 66 65 65 66 68 66 66 66 67 66 66 65 65 67 68 70 74 76
Wind_Direction
279 280 283 282 281 284 285 286 286 289 288 284 283 284 288 286 281 277 278 274 276 275 275 273 269 270 273 276 277 270 265 262 261 263 265 264 264 261 264 267 268 271 267 265
276 277 279 277 278 279 281 283 284 285 283 282 286 284 282 283 285 283 278 272 277 279 273 271 271 272 266 274 277 274 269 266 263 261 258 261 262 262 264 268 271 270 270 267
271 273 276 275 273 274 276 279 283 283 283 283 284 285 282 285 283 281 275 275 275 272 273 270 267 270 266 269 265 266 268 265 270 264 263 261 257 258 259 260 261 262 263 265
269 269 270 271 273 272 269 272 275 278 280 282 280 279 283 287 289 282 284 283 275 271 263 261 261 262 261 261 263 259 262 273 275 272 270 264 264 259 255 257 259 259 260 261
274 273 271 269 268 267 272 272 270 273 275 278 280 281 284 288 287 291 294 292 286 278 271 267 263 260 261 261 261 264 267 273 279 273 275 276 274 272 266 261 260 259 260 261
275 275 275 273 273 271 272 273 272 270 271 272 275 278 278 283 286 287 285 279 270 250 259 280 279 273 266 260 260 260 262 269 273 273 272 272 272 273 274 273 268 262 261 263
280 278 278 277 276 275 274 274 274 274 273 272 272 272 273 278 282 278 272 270 264 269 279 278 272 267 270 271 267 265 265 268 272 272 272 272 270 267 268 270 270 268 264 261
281 279 277 277 275 276 275 275 274 275 274 269 267 266 271 275 276 276 275 273 269 271 275 279 278 277 273 269 268 270 272 272 271 271 271 268 270 268 266 261 262 263 263 261
280 283 282 280 276 277 276 276 279 277 274 271 268 267 268 272 275 279 281 279 279 278 277 276 278 279 279 280 281 282 280 278 274 270 269 266 264 263 265 266 261 257 255 256
281 281 282 282 280 280 283 280 278 277 277 280 274 268 268 273 275 277 280 281 281 281 280 278 276 274 273 272 277 278 276 272 270 269 261 263 265 260 258 259 263 265 266 261
286 285 285 284 284 283 280 277 273 269 271 276 278 283 282 280 278 277 272 274 279 277 276 276 276 276 275 275 277 276 273 268 264 266 266 265 257 253 247 246 247 251 254 259
285 284 283 283 282 281 278 277 276 275 278 274 271 269 275 277 277 273 269 272 275 276 276 275 274 274 275 274 273 272 270 267 261 261 262 264 256 252 250 249 251 254 254 254
285 281 282 284 282 281 273 271 267 269 272 270 275 281 281 271 259 260 263 267 269 271 273 276 277 275 273 272 273 270 266 266 266 267 265 265 267 261 256 254 252 253 254 253
278 277 278 280 280 276 274 273 271 271 270 271 269 268 262 265 269 264 260 261 263 266 273 277 275 275 275 274 272 270 267 267 268 269 270 269 266 258 257 256 255 251 250 250
280 281 282 281 281 279 277 274 273 272 270 267 269 267 264 262 262 264 266 266 272 273 274 273 273 274 274 273 274 276 276 274 273 271 268 265 261 258 256 253 252 251 251 253
283 285 285 285 285 281 276 276 276 274 271 271 272 271 270 269 268 268 269 269 271 273 273 271 271 271 272 273 272 272 273 273 277 276 274 272 271 271 264 259 255 252 246 248
287 288 288 285 283 275 272 281 272 271 271 273 272 273 273 273 272 272 273 274 273 273 274 275 275 275 275 274 273 273 272 271 271 271 270 270 270 271 269 264 259 258 257 256
287 289 286 284 281 274 284 276 273 272 270 271 274 275 274 274 274 274 275 274 274 274 274 275 275 275 276 276 275 275 274 274 273 273 271 269 269 268 268 266 264 261 259 258
288 287 285 282 281 281 277 281 280 280 277 277 277 277 279 279 278 278 281 281 280 280 280 280 280 279 279 278 277 277 277 277 276 276 274 272 270 268 266 265 263 262 260 260
288 285 282 282 282 283 285 285 284 282 279 279 279 280 281 281 281 282 283 283 282 282 281 280 280 280 280 279 278 277 276 276 275 274 274 274 273 272 269 266 263 261 260 258
283 282 282 283 282 282 286 286 285 281 283 281 280 280 282 284 285 286 284 283 283 283 284 284 284 283 282 282 281 280 279 278 277 277 275 275 274 273 272 270 268 265 261 259
285 285 284 280 278 284 289 288 285 286 284 285 285 287 287 288 290 289 288 288 288 288 287 287 286 286 286 285 285 284 283 281 280 279 278 276 275 274 272 270 269 268 267 263
284 282 277 280 282 288 287 286 287 286 286 285 285 286 286 286 286 287 288 289 289 289 288 288 289 289 289 289 288 287 286 285 282 280 279 278 276 274 271 270 269 266 265 266
282 275 279 280 285 284 284 285 286 285 285 287 288 287 287 287 287 289 289 290 290 291 292 292 292 291 291 290 290 289 288 286 285 283 282 280 279 276 274 270 268 266 264 263
282 279 284 279 287 283 285 287 288 287 288 288 287 286 287 288 290 290 291 292 294 296 296 296 296 295 294 293 292 291 290 288 288 287 285 282 279 277 274 272 269 266 264 263
281 282 280 287 286 287 286 289 289 288 287 288 289 288 288 289 290 292 294 296 296 297 298 297 298 298 297 296 295 293 292 291 289 287 286 286 286 284 281 278 273 270 267 263
Height
5812 5808 5809 5809 5806 5804 5799 5796 5792 5797 5794 5785 5792 5786 5787 5790 5792 5793 5791 5787 5785 5784 5785 5783 5778 5777 5777 5775 5775 5777 5777 5775 5775 5774 5774 5773 5774 5773 5774 5775 5775 5776 5776 5776
5803 5797 5799 5796 5795 5792 5790 5785 5784 5781 5783 5780 5775 5774 5778 5775 5782 5780 5780 5778 5776 5776 5777 5775 5772 5770 5768 5767 5765 5766 5766 5764 5765 5764 5763 5763 5764 5764 5764 5764 5765 5764 5765 5766
5790 5789 5789 5785 5782 5783 5780 5775 5775 5769 5769 5768 5763 5761 5759 5764 5770 5769 5767 5767 5764 5765 5765 5764 5762 5760 5758 5757 5757 5756 5754 5754 5754 5753 5753 5754 5753 5752 5753 5750 5749 5749 5749 5750
5776 5779 5777 5773 5771 5768 5765 5767 5764 5761 5758 5753 5754 5747 5750 5751 5753 5752 5753 5754 5753 5751 5753 5752 5752 5750 5748 5746 5744 5745 5743 5743 5743 5743 5742 5741 5742 5743 5740 5739 5737 5736 5733 5733
5765 5764 5763 5760 5758 5755 5754 5753 5752 5751 5748 5744 5743 5740 5738 5739 5739 5736 5734 5734 5734 5739 5737 5739 5741 5741 5740 5738 5734 5734 5733 5732 5732 5732 5732 5730 5728 5728 5728 5729 5728 5725 5723 5720
5752 5751 5749 5747 5746 5745 5742 5741 5738 5734 5734 5735 5733 5730 5728 5728 5725 5722 5721 5723 5723 5722 5722 5726 5727 5727 5726 5723 5723 5723 5723 5721 5719 5718 5717 5716 5716 5715 5715 5715 5715 5715 5712 5711
5738 5737 5734 5735 5733 5733 5733 5729 5723 5721 5722 5724 5719 5721 5718 5713 5714 5713 5711 5713 5714 5710 5705 5705 5705 5707 5707 5708 5707 5707 5707 5707 5707 5705 5703 5702 5701 5700 5701 5700 5700 5699 5699 5698
5720 5725 5724 5724 5723 5720 5717 5716 5712 5704 5706 5705 5708 5705 5707 5705 5700 5697 5698 5697 5698 5695 5693 5689 5688 5688 5688 5689 5691 5691 5689 5687 5688 5688 5689 5686 5683 5683 5681 5681 5682 5682 5682 5681
5701 5708 5705 5704 5705 5706 5702 5700 5702 5689 5686 5680 5692 5694 5694 5691 5684 5679 5679 5674 5672 5673 5671 5672 5669 5668 5667 5665 5665 5665 5666 5666 5666 5667 5667 5669 5668 5666 5662 5660 5659 5660 5660 5660
5688 5685 5690 5687 5687 5689 5686 5688 5681 5679 5667 5661 5666 5673 5678 5677 5670 5664 5661 5661 5659 5656 5654 5652 5649 5649 5649 5648 5647 5647 5646 5647 5646 5644 5645 5645 5644 5646 5645 5642 5640 5640 5640 5640
5671 5668 5679 5671 5676 5675 5667 5664 5665 5662 5656 5647 5643 5648 5661 5658 5657 5652 5651 5646 5644 5640 5638 5637 5633 5628 5628 5629 5629 5627 5627 5626 5627 5626 5624 5624 5624 5623 5623 5622 5620 5620 5621 5620
5660 5647 5648 5659 5660 5653 5652 5648 5648 5641 5639 5634 5630 5627 5637 5637 5632 5629 5628 5624 5622 5620 5618 5617 5614 5612 5608 5606 5607 5606 5604 5605 5606 5606 5606 5605 5605 5604 5603 5602 5602 5601 5601 5601
5641 5636 5631 5631 5640 5637 5632 5633 5631 5627 5622 5618 5616 5612 5614 5610 5609 5608 5604 5603 5598 5596 5595 5594 5591 5588 5586 5585 5584 5584 5582 5581 5581 5582 5583 5584 5583 5584 5584 5582 5581 5580 5580 5581
5624 5622 5620 5615 5619 5618 5614 5615 5613 5609 5603 5600 5602 5600 5601 5597 5589 5589 5588 5583 5580 5577 5573 5572 5569 5566 5562 5561 5561 5560 5560 5559 5559 5556 5555 5556 5559 5559 5560 5559 5559 5557 5557 5557
5606 5600 5604 5601 5600 5598 5596 5593 5595 5588 5587 5578 5582 5577 5583 5573 5570 5569 5567 5563 5560 5558 5554 5551 5548 5546 5543 5541 5537 5532 5531 5530 5531 5531 5530 5529 5531 5532 5535 5535 5534 5535 5534 5535
5592 5583 5581 5578 5582 5576 5568 5571 5571 5571 5566 5559 5556 5549 5550 5547 5548 5543 5542 5541 5540 5537 5532 5529 5527 5524 5520 5516 5513 5511 5509 5507 5503 5502 5500 5500 5500 5504 5506 5506 5507 5506 5506 5508
5571 5565 5561 5549 5558 5550 5540 5557 5549 5545 5547 5541 5528 5530 5523 5519 5521 5522 5519 5518 5517 5514 5511 5508 5503 5499 5497 5494 5489 5485 5483 5480 5478 5475 5474 5473 5472 5472 5472 5476 5477 5476 5477 5477
5549 5547 5537 5527 5528 5514 5527 5525 5523 5519 5518 5515 5505 5501 5498 5496 5497 5499 5495 5495 5494 5489 5487 5484 5480 5478 5474 5470 5462 5457 5455 5451 5445 5443 5442 5440 5440 5440 5439 5443 5446 5447 5446 5448
5530 5522 5510 5503 5499 5493 5498 5503 5499 5494 5494 5488 5483 5478 5474 5470 5471 5478 5471 5468 5467 5462 5459 5456 5453 5450 5448 5444 5436 5431 5428 5423 5418 5412 5408 5408 5407 5407 5406 5406 5408 5413 5414 5417
5509 5501 5493 5486 5480 5473 5480 5482 5477 5475 5468 5468 5462 5459 5454 5448 5448 5456 5450 5445 5442 5438 5435 5430 5426 5423 5420 5416 5408 5404 5401 5396 5391 5385 5381 5378 5375 5372 5372 5372 5371 5373 5376 5382
5488 5484 5477 5471 5464 5459 5464 5463 5460 5455 5455 5448 5443 5442 5437 5431 5430 5431 5430 5424 5420 5415 5411 5406 5402 5400 5395 5389 5381 5378 5373 5368 5359 5355 5351 5348 5345 5342 5338 5337 5336 5334 5336 5343
5470 5465 5462 5456 5449 5449 5450 5443 5442 5439 5435 5430 5426 5424 5418 5414 5411 5408 5405 5403 5399 5394 5389 5383 5376 5374 5370 5361 5352 5348 5345 5336 5331 5325 5321 5316 5313 5309 5306 5304 5305 5302 5300 5303
5455 5452 5441 5441 5437 5440 5431 5428 5426 5422 5416 5418 5412 5411 5404 5401 5396 5392 5387 5383 5379 5372 5366 5360 5354 5349 5346 5336 5325 5317 5313 5304 5299 5294 5289 5282 5277 5275 5273 5269 5270 5269 5269 5268
5443 5436 5428 5421 5433 5423 5420 5416 5411 5408 5403 5401 5396 5392 5388 5384 5380 5377 5372 5365 5358 5352 5345 5339 5333 5326 5321 5313 5302 5291 5282 5272 5265 5260 5257 5251 5243 5241 5239 5237 5235 5233 5236 5236
5431 5419 5418 5408 5416 5407 5407 5401 5397 5392 5390 5385 5381 5376 5372 5368 5363 5359 5353 5346 5341 5334 5326 5318 5309 5302 5295 5286 5278 5267 5255 5245 5238 5231 5226 5220 5213 5210 5207 5204 5204 5202 5204 5204
5416 5408 5399 5396 5400 5389 5392 5388 5382 5378 5375 5371 5366 5361 5356 5352 5348 5343 5338 5331 5324 5317 5308 5300 5290 5281 5272 5262 5254 5243 5230 5222 5214 5207 5200 5194 5189 5185 5182 5178 5178 5176 5174 5176